This demonstration page uses our WeatherBlox Daily Observations layout. Learn more.

Left ArrowRight Arrow

Hourly Observations for January 31, 2022

Temp ( °F °C ) Dew Point ( °F °C ) Humidity (%) Winds ( mph kmh ) Pressure ( in mb ) Visibility ( mi km ) Precip ( " mm )
12:54 am 00:54 Clear 37 2.8 19 -7.2 48 48 S 3 6 29.95 1014 10 16 0.00 0.00
1:54 am 01:54 Mostly Clear 34 1.1 18 -7.8 52 52 S 3 6 29.93 1014 10 16 0.00 0.00
2:54 am 02:54 Mostly Cloudy 30 -1.1 18 -7.8 61 61 S 5 7 29.93 1014 10 16 0.00 0.00
3:54 am 03:54 Clear 26 -3.3 16 -8.9 66 66 S 6 9 29.91 1013 10 16 0.00 0.00
4:54 am 04:54 Clear 28 -2.2 17 -8.3 63 63 S 3 6 29.90 1013 10 16 0.00 0.00
5:54 am 05:54 Clear 26 -3.3 17 -8.3 69 69 SSW 5 7 29.91 1013 10 16 0.00 0.00
6:54 am 06:54 Clear 27 -2.8 17 -8.3 66 66 Calm 29.89 1012 10 16 0.00 0.00
7:54 am 07:54 Sunny 25 -3.9 18 -7.8 75 75 S 5 7 29.89 1012 10 16 0.00 0.00
8:54 am 08:54 Sunny 29 -1.7 19 -7.2 66 66 Calm 29.88 1012 10 16 0.00 0.00
9:54 am 09:54 Sunny 35 1.7 21 -6.1 57 57 SW 3 6 29.85 1011 10 16 0.00 0.00
10:54 am 10:54 Sunny 44 6.7 23 -5 43 43 S 8 13 29.83 1010 10 16 0.00 0.00
11:54 am 11:54 Sunny 51 10.6 24 -4.4 35 35 S 10 17 29.78 1008 10 16 0.00 0.00
12:54 pm 12:54 Sunny 54 12.2 22 -5.6 29 29 S 12 19 29.74 1007 10 16 0.00 0.00
1:54 pm 13:54 Sunny 60 15.6 21 -6.1 22 22 S 16 26 29.68 1005 10 16 0.00 0.00
2:54 pm 14:54 Sunny 61 16.1 20 -6.7 20 20 S 14 22 29.67 1005 10 16 0.00 0.00
3:54 pm 15:54 Sunny 61 16.1 18 -7.8 19 19 S 13 20 29.64 1004 10 16 0.00 0.00
4:54 pm 16:54 Sunny 59 15 18 -7.8 20 20 S 12 19 29.63 1003 10 16 0.00 0.00
5:54 pm 17:54 Clear 53 11.7 16 -8.9 23 23 SSW 6 9 29.65 1004 10 16 0.00 0.00
6:54 pm 18:54 Clear 48 8.9 15 -9.4 27 27 S 6 9 29.66 1004 10 16 0.00 0.00
7:54 pm 19:54 Clear 37 2.8 15 -9.4 41 41 N 6 9 29.70 1006 10 16 0.00 0.00
8:54 pm 20:54 Clear 34 1.1 16 -8.9 48 48 S 9 15 29.69 1005 10 16 0.00 0.00
9:54 pm 21:54 Clear 36 2.2 16 -8.9 44 44 S 5 7 29.70 1006 10 16 0.00 0.00
10:54 pm 22:54 Clear 39 3.9 16 -8.9 39 39 Calm 29.74 1007 10 16 0.00 0.00
11:54 pm 23:54 Clear 32 0 15 -9.4 50 50 Calm 29.76 1008 10 16 0.00 0.00

Powered by AerisWeather